| time (UTC) | temp F | wind direction | speed knots | gust knots | rain 1hr in | rain 24hr in | rain mn in | humidity % | barometer mb |
| 20260509215508 | 47 | 157 | 0.0 | 0.0 | 0.00 | 0.00 | 0.00 | ||
| 20260509215105 | 47 | 157 | 0.0 | 0.9 | 0.00 | 0.00 | 0.00 | ||
| 20260509214704 | 47 | 157 | 0.9 | 1.7 | 0.00 | 0.00 | 0.00 | ||
| 20260509214303 | 46 | 157 | 0.9 | 1.7 | 0.00 | 0.00 | 0.00 | ||
| 20260509213855 | 46 | 157 | 0.0 | 0.0 | 0.00 | 0.00 | 0.00 | ||
| 20260509213452 | 48 | 67 | 0.9 | 2.6 | 0.00 | 0.00 | 0.00 | ||
| 20260509213051 | 48 | 67 | 0.9 | 2.6 | 0.00 | 0.00 | 0.00 | ||
| 20260509212650 | 48 | 67 | 0.0 | 1.7 | 0.00 | 0.00 | 0.00 | ||
| 20260509212248 | 49 | 67 | 1.7 | 2.6 | 0.00 | 0.00 | 0.00 | ||
| 20260509211846 | 48 | 67 | 2.6 | 3.5 | 0.00 | 0.00 | 0.00 | ||
| 20260509211444 | 48 | 67 | 1.7 | 3.5 | 0.00 | 0.00 | 0.00 | ||
| 20260509211043 | 50 | 67 | 2.6 | 3.5 | 0.00 | 0.00 | 0.00 | ||
| 20260509210642 | 50 | 84 | 2.6 | 5.2 | 0.00 | 0.00 | 0.00 | ||
| 20260509210239 | 50 | 67 | 2.6 | 3.5 | 0.00 | 0.00 | 0.00 | ||
| 20260509205831 | 50 | 47 | 3.5 | 7.0 | 0.00 | 0.00 | 0.00 | ||
| 20260509205429 | 50 | 39 | 2.6 | 6.1 | 0.00 | 0.00 | 0.00 | ||
| 20260509205028 | 50 | 27 | 3.5 | 5.2 | 0.00 | 0.00 | 0.00 | ||
| 20260509204627 | 50 | 39 | 3.5 | 4.3 | 0.00 | 0.00 | 0.00 | ||
| 20260509204224 | 50 | 45 | 3.5 | 5.2 | 0.00 | 0.00 | 0.00 | ||
| 20260509203823 | 50 | 41 | 3.5 | 5.2 | 0.00 | 0.00 | 0.00 | ||
| 20260509203421 | 51 | 35 | 3.5 | 5.2 | 0.00 | 0.00 | 0.00 | ||
| 20260509203020 | 51 | 41 | 4.3 | 5.2 | 0.00 | 0.00 | 0.00 | ||
| 20260509202618 | 51 | 40 | 3.5 | 6.1 | 0.00 | 0.00 | 0.00 | ||
| 20260509202216 | 51 | 20 | 4.3 | 5.2 | 0.00 | 0.00 | 0.00 | ||
| 20260509201808 | 51 | 35 | 3.5 | 6.1 | 0.00 | 0.00 | 0.00 | ||
| 20260509201407 | 51 | 41 | 3.5 | 5.2 | 0.00 | 0.00 | 0.00 | ||
| 20260509201004 | 51 | 45 | 2.6 | 3.5 | 0.00 | 0.00 | 0.00 | ||
| 20260509200604 | 52 | 45 | 3.5 | 4.3 | 0.00 | 0.00 | 0.00 | ||
| 20260509200202 | 52 | 30 | 3.5 | 4.3 | 0.00 | 0.00 | 0.00 | ||
| 20260509195801 | 52 | 42 | 3.5 | 4.3 | 0.00 | 0.00 | 0.00 | ||
| 20260509194957 | 52 | 67 | 2.6 | 3.5 | 0.00 | 0.00 | 0.00 | ||
| 20260509194556 | 52 | 67 | 1.7 | 3.5 | 0.00 | 0.00 | 0.00 | ||
| 20260509194154 | 52 | 67 | 2.6 | 3.5 | 0.00 | 0.00 | 0.00 | ||
| 20260509193746 | 52 | 67 | 2.6 | 3.5 | 0.00 | 0.00 | 0.00 | ||
| 20260509193343 | 52 | 67 | 2.6 | 3.5 | 0.00 | 0.00 | 0.00 | ||
| 20260509192942 | 52 | 67 | 2.6 | 4.3 | 0.00 | 0.00 | 0.00 | ||
| 20260509192541 | 52 | 48 | 3.5 | 5.2 | 0.00 | 0.00 | 0.00 | ||
| 20260509192139 | 52 | 67 | 2.6 | 5.2 | 0.00 | 0.00 | 0.00 | ||
| 20260509191737 | 52 | 69 | 3.5 | 5.2 | 0.00 | 0.00 | 0.00 | ||
| 20260509191335 | 52 | 82 | 2.6 | 3.5 | 0.00 | 0.00 | 0.00 | ||
| 20260509190934 | 52 | 71 | 3.5 | 6.1 | 0.00 | 0.00 | 0.00 | ||
| 20260509190533 | 52 | 67 | 3.5 | 4.3 | 0.00 | 0.00 | 0.00 | ||
| 20260509190130 | 52 | 72 | 3.5 | 4.3 | 0.00 | 0.00 | 0.00 | ||
| 20260509185722 | 53 | 67 | 3.5 | 5.2 | 0.00 | 0.00 | 0.00 | ||
| 20260509185320 | 53 | 66 | 3.5 | 5.2 | 0.00 | 0.00 | 0.00 | ||
| 20260509184919 | 53 | 62 | 2.6 | 4.3 | 0.00 | 0.00 | 0.00 | ||
| 20260509184517 | 53 | 58 | 3.5 | 4.3 | 0.00 | 0.00 | 0.00 | ||
| 20260509184115 | 53 | 50 | 4.3 | 5.2 | 0.00 | 0.00 | 0.00 | ||
| 20260509183714 | 53 | 45 | 4.3 | 6.1 | 0.00 | 0.00 | 0.00 | ||
| 20260509183312 | 53 | 49 | 4.3 | 5.2 | 0.00 | 0.00 | 0.00 | ||
| 20260509182911 | 53 | 45 | 2.6 | 4.3 | 0.00 | 0.00 | 0.00 | ||
| 20260509182509 | 53 | 45 | 2.6 | 5.2 | 0.00 | 0.00 | 0.00 | ||
| 20260509182107 | 54 | 45 | 3.5 | 5.2 | 0.00 | 0.00 | 0.00 | ||
| 20260509181700 | 54 | 45 | 2.6 | 3.5 | 0.00 | 0.00 | 0.00 | ||
| 20260509181258 | 54 | 45 | 1.7 | 2.6 | 0.00 | 0.00 | 0.00 | ||
| 20260509180856 | 54 | 45 | 2.6 | 4.3 | 0.00 | 0.00 | 0.00 | ||
| 20260509180455 | 55 | 45 | 1.7 | 4.3 | 0.00 | 0.00 | 0.00 | ||
| 20260509180053 | 55 | 35 | 3.5 | 6.1 | 0.00 | 0.00 | 0.00 | ||
| 20260509175652 | 55 | 42 | 2.6 | 4.3 | 0.00 | 0.00 | 0.00 | ||
| 20260509175249 | 55 | 21 | 0.9 | 2.6 | 0.00 | 0.00 | 0.00 | ||
| 20260509174848 | 56 | 29 | 2.6 | 5.2 | 0.00 | 0.00 | 0.00 | ||
| 20260509174447 | 56 | 18 | 3.5 | 6.1 | 0.00 | 0.00 | 0.00 | ||
| 20260509174045 | 56 | 53 | 2.6 | 4.3 | 0.00 | 0.00 | 0.00 | ||
| 20260509173636 | 56 | 35 | 3.5 | 7.0 | 0.00 | 0.00 | 0.00 | ||
| 20260509173234 | 56 | 26 | 5.2 | 8.7 | 0.00 | 0.00 | 0.00 | ||
| 20260509172833 | 57 | 13 | 1.7 | 6.1 | 0.00 | 0.00 | 0.00 | ||
| 20260509172432 | 57 | 10 | 2.6 | 5.2 | 0.00 | 0.00 | 0.00 | ||
| 20260509172030 | 57 | 13 | 5.2 | 8.7 | 0.00 | 0.00 | 0.00 | ||
| 20260509171628 | 57 | 0 | 3.5 | 5.2 | 0.00 | 0.00 | 0.00 | ||
| 20260509171226 | 57 | 17 | 3.5 | 6.1 | 0.00 | 0.00 | 0.00 | ||
| 20260509170825 | 57 | 16 | 4.3 | 7.8 | 0.00 | 0.00 | 0.00 | ||
| 20260509170021 | 57 | 26 | 4.3 | 6.1 | 0.00 | 0.00 | 0.00 | ||
| 20260509165613 | 58 | 19 | 3.5 | 7.0 | 0.00 | 0.00 | 0.00 | ||
| 20260509165211 | 58 | 11 | 3.5 | 5.2 | 0.00 | 0.00 | 0.00 | ||
| 20260509164810 | 58 | 44 | 1.7 | 4.3 | 0.00 | 0.00 | 0.00 | ||
| 20260509164408 | 59 | 1 | 2.6 | 4.3 | 0.00 | 0.00 | 0.00 | ||
| 20260509164006 | 59 | 65 | 0.9 | 3.5 | 0.00 | 0.00 | 0.00 | ||
| 20260509163605 | 59 | 13 | 0.9 | 3.5 | 0.00 | 0.00 | 0.00 | ||
| 20260509163203 | 58 | 20 | 2.6 | 3.5 | 0.00 | 0.00 | 0.00 | ||
| 20260509162801 | 58 | 70 | 3.5 | 5.2 | 0.00 | 0.00 | 0.00 | ||
| 20260509162400 | 58 | 48 | 4.3 | 6.1 | 0.00 | 0.00 | 0.00 | ||
| 20260509161958 | 58 | 32 | 5.2 | 7.8 | 0.00 | 0.00 | 0.00 | ||
| 20260509161550 | 59 | 46 | 2.6 | 3.5 | 0.00 | 0.00 | 0.00 | ||
| 20260509161149 | 58 | 26 | 6.1 | 8.7 | 0.00 | 0.00 | 0.00 | ||
| 20260509160746 | 59 | 37 | 2.6 | 6.1 | 0.00 | 0.00 | 0.00 | ||
| 20260509160345 | 59 | 55 | 2.6 | 4.3 | 0.00 | 0.00 | 0.00 | ||
| 20260509155943 | 59 | 47 | 2.6 | 4.3 | 0.00 | 0.00 | 0.00 | ||
| 20260509155543 | 61 | 22 | 5.2 | 8.7 | 0.00 | 0.00 | 0.00 | ||
| 20260509155140 | 60 | 14 | 0.9 | 4.3 | 0.00 | 0.00 | 0.00 | ||
| 20260509154738 | 60 | 12 | 2.6 | 5.2 | 0.00 | 0.00 | 0.00 | ||
| 20260509154337 | 60 | 19 | 2.6 | 5.2 | 0.00 | 0.00 | 0.00 | ||
| 20260509153935 | 59 | 43 | 2.6 | 5.2 | 0.00 | 0.00 | 0.00 | ||
| 20260509153526 | 59 | 22 | 5.2 | 10.4 | 0.00 | 0.00 | 0.00 | ||
| 20260509153124 | 59 | 29 | 2.6 | 7.0 | 0.00 | 0.00 | 0.00 | ||
| 20260509152723 | 59 | 60 | 2.6 | 6.1 | 0.00 | 0.00 | 0.00 | ||
| 20260509152322 | 59 | 42 | 3.5 | 6.1 | 0.00 | 0.00 | 0.00 | ||
| 20260509151919 | 59 | 55 | 3.5 | 5.2 | 0.00 | 0.00 | 0.00 | ||
| 20260509151518 | 59 | 342 | 1.7 | 3.5 | 0.00 | 0.00 | 0.00 | ||
| 20260509151116 | 59 | 19 | 0.9 | 3.5 | 0.00 | 0.00 | 0.00 | ||
| 20260509150715 | 58 | 24 | 3.5 | 6.1 | 0.00 | 0.00 | 0.00 | ||
| 20260509150313 | 58 | 31 | 6.1 | 8.7 | 0.00 | 0.00 | 0.00 | ||
| 20260509145910 | 58 | 31 | 5.2 | 8.7 | 0.00 | 0.00 | 0.00 | ||
| 20260509145502 | 59 | 15 | 2.6 | 7.0 | 0.00 | 0.00 | 0.00 | ||
| 20260509145101 | 59 | 3 | 4.3 | 7.8 | 0.00 | 0.00 | 0.00 | ||
| 20260509144700 | 59 | 0 | 3.5 | 6.1 | 0.00 | 0.00 | 0.00 | ||
| 20260509144257 | 59 | 0 | 2.6 | 7.0 | 0.00 | 0.00 | 0.00 | ||
| 20260509143856 | 58 | 1 | 2.6 | 5.2 | 0.00 | 0.00 | 0.00 | ||
| 20260509143455 | 59 | 6 | 4.3 | 7.0 | 0.00 | 0.00 | 0.00 | ||
| 20260509143052 | 59 | 0 | 3.5 | 7.8 | 0.00 | 0.00 | 0.00 | ||
| 20260509142650 | 59 | 18 | 5.2 | 8.7 | 0.00 | 0.00 | 0.00 | ||
| 20260509142249 | 60 | 11 | 0.9 | 7.8 | 0.00 | 0.00 | 0.00 | ||
| 20260509141847 | 59 | 11 | 3.5 | 8.7 | 0.00 | 0.00 | 0.00 | ||
| 20260509141439 | 59 | 345 | 4.3 | 7.8 | 0.00 | 0.00 | 0.00 | ||
| 20260509141036 | 59 | 359 | 2.6 | 6.1 | 0.00 | 0.00 | 0.00 | ||
| 20260509140635 | 59 | 341 | 3.5 | 7.0 | 0.00 | 0.00 | 0.00 | ||
| 20260509140234 | 60 | 2 | 1.7 | 3.5 | 0.00 | 0.00 | 0.00 | ||
| 20260509135833 | 59 | 24 | 3.5 | 7.0 | 0.00 | 0.00 | 0.00 | ||
| 20260509135432 | 59 | 20 | 3.5 | 6.1 | 0.00 | 0.00 | 0.00 | ||
| 20260509135029 | 59 | 34 | 4.3 | 7.0 | 0.00 | 0.00 | 0.00 | ||
| 20260509134628 | 59 | 30 | 3.5 | 7.0 | 0.00 | 0.00 | 0.00 | ||
| 20260509134227 | 59 | 31 | 4.3 | 8.7 | 0.00 | 0.00 | 0.00 | ||
| 20260509133825 | 59 | 54 | 5.2 | 8.7 | 0.00 | 0.00 | 0.00 | ||
| 20260509133416 | 59 | 47 | 5.2 | 8.7 | 0.00 | 0.00 | 0.00 | ||
| 20260509133014 | 60 | 51 | 4.3 | 7.8 | 0.00 | 0.00 | 0.00 | ||
| 20260509132613 | 60 | 338 | 2.6 | 5.2 | 0.00 | 0.00 | 0.00 | ||
| 20260509132212 | 60 | 0 | 5.2 | 8.7 | 0.00 | 0.00 | 0.00 | ||
| 20260509131809 | 61 | 344 | 2.6 | 6.1 | 0.00 | 0.00 | 0.00 | ||
| 20260509131408 | 61 | 327 | 1.7 | 3.5 | 0.00 | 0.00 | 0.00 | ||
| 20260509131006 | 60 | 343 | 3.5 | 5.2 | 0.00 | 0.00 | 0.00 | ||
| 20260509130605 | 61 | 331 | 2.6 | 6.1 | 0.00 | 0.00 | 0.00 | ||
| 20260509130203 | 62 | 342 | 1.7 | 3.5 | 0.00 | 0.00 | 0.00 | ||
| 20260509125801 | 61 | 343 | 1.7 | 5.2 | 0.00 | 0.00 | 0.00 | ||
| 20260509125353 | 61 | 352 | 3.5 | 7.0 | 0.00 | 0.00 | 0.00 | ||
| 20260509124951 | 60 | 357 | 1.7 | 5.2 | 0.00 | 0.00 | 0.00 | ||
| 20260509124550 | 59 | 329 | 1.7 | 5.2 | 0.00 | 0.00 | 0.00 | ||
| 20260509124148 | 61 | 339 | 2.6 | 4.3 | 0.00 | 0.00 | 0.00 | ||
| 20260509123746 | 61 | 354 | 2.6 | 7.8 | 0.00 | 0.00 | 0.00 | ||
| 20260509123345 | 60 | 352 | 1.7 | 6.1 | 0.00 | 0.00 | 0.00 | ||
| 20260509122943 | 61 | 310 | 1.7 | 4.3 | 0.00 | 0.00 | 0.00 | ||
| 20260509122541 | 59 | 323 | 3.5 | 6.1 | 0.00 | 0.00 | 0.00 | ||
| 20260509122140 | 60 | 321 | 3.5 | 7.8 | 0.00 | 0.00 | 0.00 | ||
| 20260509121739 | 60 | 3 | 4.3 | 7.0 | 0.00 | 0.00 | 0.00 | ||
| 20260509121331 | 61 | 12 | 3.5 | 7.0 | 0.00 | 0.00 | 0.00 | ||
| 20260509120928 | 61 | 8 | 1.7 | 4.3 | 0.00 | 0.00 | 0.00 | ||
| 20260509120527 | 60 | 39 | 3.5 | 5.2 | 0.00 | 0.00 | 0.00 | ||
| 20260509120126 | 61 | 355 | 1.7 | 3.5 | 0.00 | 0.00 | 0.00 | ||
| 20260509115724 | 61 | 8 | 0.9 | 3.5 | 0.00 | 0.00 | 0.00 | ||
| 20260509115322 | 60 | 350 | 2.6 | 4.3 | 0.00 | 0.00 | 0.00 | ||
| 20260509114920 | 61 | 14 | 2.6 | 5.2 | 0.00 | 0.00 | 0.00 | ||
| 20260509114519 | 60 | 67 | 0.0 | 1.7 | 0.00 | 0.00 | 0.00 | ||
| 20260509114118 | 60 | 14 | 3.5 | 6.1 | 0.00 | 0.00 | 0.00 | ||
| 20260509113716 | 61 | 5 | 1.7 | 6.1 | 0.00 | 0.00 | 0.00 | ||
| 20260509113307 | 60 | 13 | 4.3 | 7.8 | 0.00 | 0.00 | 0.00 | ||
| 20260509112905 | 60 | 70 | 5.2 | 7.8 | 0.00 | 0.00 | 0.00 | ||
| 20260509112103 | 62 | 1 | 0.9 | 3.5 | 0.00 | 0.00 | 0.00 | ||
| 20260509111700 | 61 | 5 | 1.7 | 5.2 | 0.00 | 0.00 | 0.00 | ||
| 20260509111259 | 60 | 46 | 2.6 | 5.2 | 0.00 | 0.00 | 0.00 | ||
| 20260509110857 | 61 | 56 | 2.6 | 6.1 | 0.00 | 0.00 | 0.00 | ||
| 20260509110456 | 61 | 8 | 3.5 | 6.1 | 0.00 | 0.00 | 0.00 | ||
| 20260509110054 | 61 | 18 | 3.5 | 6.1 | 0.00 | 0.00 | 0.00 | ||
| 20260509105652 | 61 | 12 | 1.7 | 5.2 | 0.00 | 0.00 | 0.00 | ||
| 20260509105244 | 60 | 0 | 0.9 | 3.5 | 0.00 | 0.00 | 0.00 | ||
| 20260509104843 | 60 | 67 | 1.7 | 3.5 | 0.00 | 0.00 | 0.00 | ||
| 20260509104440 | 60 | 65 | 5.2 | 7.8 | 0.00 | 0.00 | 0.00 | ||
| 20260509104040 | 61 | 20 | 4.3 | 8.7 | 0.00 | 0.00 | 0.00 | ||
| 20260509103638 | 63 | 66 | 3.5 | 7.0 | 0.00 | 0.00 | 0.00 | ||
| 20260509103237 | 62 | 326 | 1.7 | 5.2 | 0.00 | 0.00 | 0.00 | ||
| 20260509102835 | 62 | 20 | 0.0 | 1.7 | 0.00 | 0.00 | 0.00 | ||
| 20260509102433 | 61 | 52 | 1.7 | 4.3 | 0.00 | 0.00 | 0.00 | ||
| 20260509102032 | 61 | 333 | 1.7 | 3.5 | 0.00 | 0.00 | 0.00 | ||
| 20260509101630 | 61 | 292 | 1.7 | 2.6 | 0.00 | 0.00 | 0.00 | ||
| 20260509101222 | 59 | 299 | 2.6 | 5.2 | 0.00 | 0.00 | 0.00 | ||
| 20260509100819 | 59 | 18 | 2.6 | 4.3 | 0.00 | 0.00 | 0.00 | ||
| 20260509100418 | 59 | 357 | 2.6 | 5.2 | 0.00 | 0.00 | 0.00 | ||
| 20260509100017 | 59 | 315 | 0.0 | 1.7 | 0.00 | 0.00 | 0.00 | ||
| 20260509095615 | 59 | 315 | 0.9 | 3.5 | 0.00 | 0.00 | 0.00 | ||
| 20260509095213 | 59 | 17 | 1.7 | 3.5 | 0.00 | 0.00 | 0.00 | ||
| 20260509094811 | 58 | 19 | 2.6 | 4.3 | 0.00 | 0.00 | 0.00 | ||
| 20260509094410 | 58 | 9 | 3.5 | 6.1 | 0.00 | 0.00 | 0.00 | ||
| 20260509094009 | 58 | 357 | 2.6 | 5.2 | 0.00 | 0.00 | 0.00 | ||
| 20260509093606 | 59 | 338 | 0.0 | 1.7 | 0.00 | 0.00 | 0.00 | ||
| 20260509093158 | 61 | 338 | 0.9 | 3.5 | 0.00 | 0.00 | 0.00 | ||
| 20260509092756 | 60 | 338 | 1.7 | 3.5 | 0.00 | 0.00 | 0.00 | ||
| 20260509092356 | 59 | 338 | 0.9 | 2.6 | 0.00 | 0.00 | 0.00 | ||
| 20260509091955 | 58 | 338 | 2.6 | 3.5 | 0.00 | 0.00 | 0.00 | ||
| 20260509091551 | 58 | 316 | 1.7 | 3.5 | 0.00 | 0.00 | 0.00 | ||
| 20260509091151 | 58 | 296 | 2.6 | 6.1 | 0.00 | 0.00 | 0.00 | ||
| 20260509090749 | 57 | 292 | 1.7 | 4.3 | 0.00 | 0.00 | 0.00 | ||
| 20260509090348 | 56 | 318 | 3.5 | 6.1 | 0.00 | 0.00 | 0.00 | ||
| 20260509085946 | 56 | 339 | 1.7 | 3.5 | 0.00 | 0.00 | 0.00 | ||
| 20260509085544 | 56 | 340 | 2.6 | 6.1 | 0.00 | 0.00 | 0.00 | ||
| 20260509085136 | 56 | 330 | 1.7 | 5.2 | 0.00 | 0.00 | 0.00 | ||
| 20260509084734 | 56 | 302 | 2.6 | 5.2 | 0.00 | 0.00 | 0.00 | ||
| 20260509084332 | 56 | 315 | 2.6 | 4.3 | 0.00 | 0.00 | 0.00 | ||
| 20260509083931 | 56 | 339 | 3.5 | 7.8 | 0.00 | 0.00 | 0.00 | ||
| 20260509083529 | 57 | 338 | 1.7 | 3.5 | 0.00 | 0.00 | 0.00 | ||
| 20260509083128 | 57 | 296 | 1.7 | 3.5 | 0.00 | 0.00 | 0.00 | ||
| 20260509082725 | 59 | 338 | 0.9 | 3.5 | 0.00 | 0.00 | 0.00 | ||
| 20260509082324 | 57 | 354 | 3.5 | 6.1 | 0.00 | 0.00 | 0.00 | ||
| 20260509081923 | 56 | 344 | 2.6 | 5.2 | 0.00 | 0.00 | 0.00 | ||
| 20260509081521 | 56 | 9 | 1.7 | 4.3 | 0.00 | 0.00 | 0.00 | ||
| 20260509081113 | 56 | 316 | 2.6 | 5.2 | 0.00 | 0.00 | 0.00 | ||
| 20260509080309 | 58 | 340 | 1.7 | 3.5 | 0.00 | 0.00 | 0.00 | ||
| 20260509075908 | 57 | 0 | 0.9 | 3.5 | 0.00 | 0.00 | 0.00 | ||
| 20260509075506 | 57 | 12 | 1.7 | 4.3 | 0.00 | 0.00 | 0.00 | ||
| 20260509075103 | 56 | 354 | 3.5 | 6.1 | 0.00 | 0.00 | 0.00 | ||
| 20260509074701 | 56 | 357 | 1.7 | 3.5 | 0.00 | 0.00 | 0.00 | ||
| 20260509074300 | 55 | 339 | 3.5 | 6.1 | 0.00 | 0.00 | 0.00 | ||
| 20260509073859 | 58 | 25 | 1.7 | 3.5 | 0.00 | 0.00 | 0.00 | ||
| 20260509073456 | 56 | 16 | 4.3 | 7.8 | 0.00 | 0.00 | 0.00 | ||
| 20260509073048 | 57 | 20 | 3.5 | 7.0 | 0.00 | 0.00 | 0.00 | ||
| 20260509072646 | 56 | 15 | 3.5 | 6.1 | 0.00 | 0.00 | 0.00 | ||
| 20260509072245 | 56 | 58 | 6.1 | 7.8 | 0.00 | 0.00 | 0.00 | ||
| 20260509071843 | 56 | 27 | 6.1 | 7.8 | 0.00 | 0.00 | 0.00 | ||
| 20260509071441 | 56 | 27 | 3.5 | 7.8 | 0.00 | 0.00 | 0.00 | ||
| 20260509071040 | 56 | 356 | 1.7 | 3.5 | 0.00 | 0.00 | 0.00 | ||
| 20260509070637 | 55 | 28 | 2.6 | 5.2 | 0.00 | 0.00 | 0.00 | ||
| 20260509070236 | 55 | 12 | 3.5 | 7.0 | 0.00 | 0.00 | 0.00 | ||
| 20260509065834 | 55 | 334 | 3.5 | 6.1 | 0.00 | 0.00 | 0.00 | ||
| 20260509065432 | 55 | 345 | 3.5 | 4.3 | 0.00 | 0.00 | 0.00 | ||
| 20260509065024 | 55 | 351 | 2.6 | 6.1 | 0.00 | 0.00 | 0.00 | ||
| 20260509064623 | 56 | 343 | 1.7 | 4.3 | 0.00 | 0.00 | 0.00 | ||
| 20260509064220 | 55 | 23 | 3.5 | 7.0 | 0.00 | 0.00 | 0.00 | ||
| 20260509063820 | 55 | 42 | 5.2 | 7.8 | 0.00 | 0.00 | 0.00 | ||
| 20260509063418 | 56 | 16 | 1.7 | 3.5 | 0.00 | 0.00 | 0.00 | ||
| 20260509063017 | 56 | 356 | 0.9 | 3.5 | 0.00 | 0.00 | 0.00 | ||
| 20260509062614 | 55 | 347 | 1.7 | 3.5 | 0.00 | 0.00 | 0.00 | ||
| 20260509062213 | 55 | 29 | 4.3 | 5.2 | 0.00 | 0.00 | 0.00 | ||
| 20260509061812 | 55 | 0 | 0.9 | 4.3 | 0.00 | 0.00 | 0.00 | ||
| 20260509061410 | 54 | 34 | 4.3 | 6.1 | 0.00 | 0.00 | 0.00 | ||
| 20260509061001 | 54 | 36 | 7.0 | 9.6 | 0.00 | 0.00 | 0.00 | ||
| 20260509060559 | 54 | 51 | 4.3 | 7.0 | 0.00 | 0.00 | 0.00 | ||
| 20260509060158 | 54 | 13 | 3.5 | 6.1 | 0.00 | 0.00 | 0.00 | ||
| 20260509055757 | 53 | 40 | 6.1 | 7.8 | 0.00 | 0.00 | 0.00 | ||
| 20260509055355 | 54 | 1 | 2.6 | 7.0 | 0.00 | 0.00 | 0.00 | ||
| 20260509054953 | 53 | 17 | 3.5 | 6.1 | 0.00 | 0.00 | 0.00 | ||
| 20260509054551 | 53 | 31 | 3.5 | 6.1 | 0.00 | 0.00 | 0.00 | ||
| 20260509054150 | 53 | 45 | 3.5 | 6.1 | 0.00 | 0.00 | 0.00 | ||
| 20260509053749 | 54 | 26 | 0.9 | 4.3 | 0.00 | 0.00 | 0.00 | ||
| 20260509053346 | 53 | 21 | 0.9 | 2.6 | 0.00 | 0.00 | 0.00 | ||
| 20260509052938 | 53 | 26 | 0.9 | 2.6 | 0.00 | 0.00 | 0.00 | ||
| 20260509052536 | 53 | 28 | 1.7 | 3.5 | 0.00 | 0.00 | 0.00 | ||
| 20260509052136 | 52 | 41 | 4.3 | 6.1 | 0.00 | 0.00 | 0.00 | ||
| 20260509051734 | 52 | 37 | 3.5 | 4.3 | 0.00 | 0.00 | 0.00 | ||
| 20260509051332 | 52 | 41 | 3.5 | 5.2 | 0.00 | 0.00 | 0.00 | ||
| 20260509050930 | 52 | 67 | 1.7 | 3.5 | 0.00 | 0.00 | 0.00 | ||
| 20260509050528 | 53 | 67 | 0.0 | 0.0 | 0.00 | 0.00 | 0.00 | ||
| 20260509050126 | 52 | 67 | 1.7 | 3.5 | 0.00 | 0.00 | 0.00 | ||
| 20260509045725 | 52 | 67 | 0.9 | 1.7 | 0.00 | 0.00 | 0.00 | ||
| 20260509045323 | 52 | 67 | 0.0 | 1.7 | 0.00 | 0.00 | 0.00 | ||
| 20260509044916 | 52 | 67 | 0.0 | 0.9 | 0.00 | 0.00 | 0.00 | ||
| 20260509044514 | 52 | 67 | 0.0 | 0.0 | 0.00 | 0.00 | 0.00 | ||
| 20260509044112 | 52 | 67 | 0.0 | 0.0 | 0.00 | 0.00 | 0.00 | ||
| 20260509043711 | 52 | 67 | 0.0 | 1.7 | 0.00 | 0.00 | 0.00 | ||
| 20260509043309 | 52 | 67 | 0.0 | 1.7 | 0.00 | 0.00 | 0.00 | ||
| 20260509042908 | 53 | 67 | 0.0 | 0.0 | 0.00 | 0.00 | 0.00 | ||
| 20260509042505 | 52 | 67 | 0.0 | 1.7 | 0.00 | 0.00 | 0.00 | ||
| 20260509042104 | 52 | 67 | 0.0 | 0.0 | 0.00 | 0.00 | 0.00 | ||
| 20260509041703 | 52 | 67 | 0.0 | 0.0 | 0.00 | 0.00 | 0.00 | ||
| 20260509041301 | 51 | 67 | 0.0 | 1.7 | 0.00 | 0.00 | 0.00 | ||
| 20260509040852 | 51 | 67 | 0.9 | 3.5 | 0.00 | 0.00 | 0.00 | ||
| 20260509040450 | 51 | 67 | 0.0 | 0.0 | 0.00 | 0.00 | 0.00 | ||
| 20260509040049 | 51 | 67 | 0.9 | 2.6 | 0.00 | 0.00 | 0.00 | ||
| 20260509035648 | 51 | 81 | 1.7 | 2.6 | 0.00 | 0.00 | 0.00 | ||
| 20260509035245 | 51 | 90 | 0.9 | 1.7 | 0.00 | 0.00 | 0.00 | ||
| 20260509034844 | 51 | 90 | 0.9 | 2.6 | 0.00 | 0.00 | 0.00 | ||
| 20260509034041 | 51 | 90 | 0.9 | 2.6 | 0.00 | 0.00 | 0.00 | ||
| 20260509033640 | 51 | 90 | 0.9 | 1.7 | 0.00 | 0.00 | 0.00 | ||
| 20260509033237 | 51 | 90 | 0.9 | 1.7 | 0.00 | 0.00 | 0.00 | ||
| 20260509032829 | 51 | 90 | 0.0 | 0.0 | 0.00 | 0.00 | 0.00 | ||
| 20260509032428 | 51 | 90 | 0.9 | 1.7 | 0.00 | 0.00 | 0.00 | ||
| 20260509032027 | 51 | 90 | 0.9 | 2.6 | 0.00 | 0.00 | 0.00 | ||
| 20260509031624 | 51 | 90 | 0.9 | 1.7 | 0.00 | 0.00 | 0.00 | ||
| 20260509031223 | 51 | 90 | 0.9 | 3.5 | 0.00 | 0.00 | 0.00 | ||
| 20260509030822 | 51 | 90 | 0.0 | 1.7 | 0.00 | 0.00 | 0.00 | ||
| 20260509030420 | 51 | 90 | 0.0 | 0.0 | 0.00 | 0.00 | 0.00 | ||
| 20260509030018 | 51 | 90 | 2.6 | 3.5 | 0.00 | 0.00 | 0.00 | ||
| 20260509025617 | 51 | 90 | 2.6 | 3.5 | 0.00 | 0.00 | 0.00 | ||
| 20260509025215 | 51 | 90 | 1.7 | 3.5 | 0.00 | 0.00 | 0.00 | ||
| 20260509024807 | 51 | 55 | 1.7 | 3.5 | 0.00 | 0.00 | 0.00 | ||
| 20260509024404 | 51 | 45 | 1.7 | 3.5 | 0.00 | 0.00 | 0.00 | ||
| 20260509024003 | 51 | 45 | 1.7 | 3.5 | 0.00 | 0.00 | 0.00 | ||
| 20260509023602 | 51 | 45 | 1.7 | 3.5 | 0.00 | 0.00 | 0.00 | ||
| 20260509023200 | 51 | 22 | 1.7 | 3.5 | 0.00 | 0.00 | 0.00 | ||
| 20260509022759 | 51 | 0 | 0.0 | 1.7 | 0.00 | 0.00 | 0.00 | ||
| 20260509022356 | 51 | 0 | 0.9 | 1.7 | 0.00 | 0.00 | 0.00 | ||
| 20260509021955 | 51 | 0 | 0.9 | 2.6 | 0.00 | 0.00 | 0.00 | ||
| 20260509021554 | 51 | 0 | 0.0 | 1.7 | 0.00 | 0.00 | 0.00 | ||
| 20260509021152 | 52 | 0 | 0.0 | 0.0 | 0.00 | 0.00 | 0.00 | ||
| 20260509020743 | 52 | 0 | 0.0 | 1.7 | 0.00 | 0.00 | 0.00 | ||
| 20260509020341 | 52 | 0 | 0.0 | 1.7 | 0.00 | 0.00 | 0.00 | ||
| 20260509015539 | 52 | 0 | 0.0 | 1.7 | 0.00 | 0.00 | 0.00 | ||
| 20260509015136 | 51 | 0 | 0.0 | 0.9 | 0.00 | 0.00 | 0.00 | ||
| 20260509014735 | 51 | 0 | 0.0 | 1.7 | 0.00 | 0.00 | 0.00 | ||
| 20260509014334 | 52 | 0 | 0.0 | 0.9 | 0.00 | 0.00 | 0.00 | ||
| 20260509013933 | 52 | 21 | 0.0 | 1.7 | 0.00 | 0.00 | 0.00 | ||
| 20260509013530 | 51 | 0 | 1.7 | 2.6 | 0.00 | 0.00 | 0.00 | ||
| 20260509013129 | 51 | 0 | 0.9 | 1.7 | 0.00 | 0.00 | 0.00 | ||
| 20260509012721 | 51 | 5 | 2.6 | 3.5 | 0.00 | 0.00 | 0.00 | ||
| 20260509012319 | 52 | 0 | 0.9 | 2.6 | 0.00 | 0.00 | 0.00 | ||
| 20260509011918 | 51 | 1 | 0.9 | 2.6 | 0.00 | 0.00 | 0.00 | ||
| 20260509011516 | 51 | 16 | 1.7 | 5.2 | 0.00 | 0.00 | 0.00 | ||
| 20260509011114 | 52 | 0 | 0.0 | 0.9 | 0.00 | 0.00 | 0.00 | ||
| 20260509010713 | 52 | 0 | 0.9 | 1.7 | 0.00 | 0.00 | 0.00 | ||
| 20260509010311 | 51 | 0 | 1.7 | 2.6 | 0.00 | 0.00 | 0.00 | ||
| 20260509005909 | 52 | 355 | 1.7 | 4.3 | 0.00 | 0.00 | 0.00 | ||
| 20260509005508 | 51 | 0 | 0.9 | 3.5 | 0.00 | 0.00 | 0.00 | ||
| 20260509005106 | 51 | 4 | 2.6 | 5.2 | 0.00 | 0.00 | 0.00 | ||
| 20260509004658 | 51 | 6 | 1.7 | 5.2 | 0.00 | 0.00 | 0.00 | ||
| 20260509004255 | 51 | 359 | 1.7 | 3.5 | 0.00 | 0.00 | 0.00 | ||
| 20260509003854 | 52 | 0 | 2.6 | 6.1 | 0.00 | 0.00 | 0.00 | ||
| 20260509003453 | 51 | 353 | 2.6 | 5.2 | 0.00 | 0.00 | 0.00 | ||
| 20260509003051 | 51 | 7 | 2.6 | 4.3 | 0.00 | 0.00 | 0.00 | ||
| 20260509002649 | 52 | 356 | 2.6 | 6.1 | 0.00 | 0.00 | 0.00 | ||
| 20260509002247 | 52 | 2 | 0.9 | 3.5 | 0.00 | 0.00 | 0.00 | ||
| 20260509001846 | 52 | 2 | 1.7 | 5.2 | 0.00 | 0.00 | 0.00 | ||
| 20260509001445 | 52 | 21 | 0.9 | 1.7 | 0.00 | 0.00 | 0.00 | ||
| 20260509001044 | 52 | 1 | 2.6 | 3.5 | 0.00 | 0.00 | 0.00 | ||
| 20260509000634 | 52 | 359 | 1.7 | 4.3 | 0.00 | 0.00 | 0.00 | ||
| 20260509000233 | 52 | 8 | 3.5 | 7.0 | 0.00 | 0.00 | 0.00 | ||
| 20260508235831 | 52 | 0 | 2.6 | 7.0 | 0.00 | 0.00 | 0.00 | ||
| 20260508235430 | 52 | 2 | 3.5 | 5.2 | 0.00 | 0.00 | 0.00 | ||
| 20260508235026 | 52 | 2 | 3.5 | 6.1 | 0.00 | 0.00 | 0.00 | ||
| 20260508234625 | 52 | 12 | 2.6 | 5.2 | 0.00 | 0.00 | 0.00 | ||
| 20260508234223 | 52 | 18 | 3.5 | 7.0 | 0.00 | 0.00 | 0.00 | ||
| 20260508233822 | 52 | 18 | 3.5 | 7.0 | 0.00 | 0.00 | 0.00 | ||
| 20260508233420 | 52 | 11 | 1.7 | 4.3 | 0.00 | 0.00 | 0.00 | ||
| 20260508233018 | 52 | 0 | 2.6 | 4.3 | 0.00 | 0.00 | 0.00 | ||
| 20260508232610 | 52 | 358 | 1.7 | 3.5 | 0.00 | 0.00 | 0.00 | ||
| 20260508232208 | 52 | 356 | 1.7 | 4.3 | 0.00 | 0.00 | 0.00 | ||
| 20260508231806 | 53 | 345 | 1.7 | 4.3 | 0.00 | 0.00 | 0.00 | ||
| 20260508231405 | 52 | 357 | 2.6 | 5.2 | 0.00 | 0.00 | 0.00 | ||
| 20260508231003 | 52 | 0 | 2.6 | 6.1 | 0.00 | 0.00 | 0.00 | ||
| 20260508230602 | 53 | 355 | 2.6 | 5.2 | 0.00 | 0.00 | 0.00 | ||
| 20260508230200 | 53 | 358 | 2.6 | 4.3 | 0.00 | 0.00 | 0.00 | ||
| 20260508225758 | 53 | 353 | 1.7 | 4.3 | 0.00 | 0.00 | 0.00 | ||
| 20260508225357 | 53 | 2 | 2.6 | 5.2 | 0.00 | 0.00 | 0.00 | ||
| 20260508224955 | 53 | 0 | 1.7 | 4.3 | 0.00 | 0.00 | 0.00 | ||
| 20260508224547 | 53 | 7 | 2.6 | 4.3 | 0.00 | 0.00 | 0.00 | ||
| 20260508224144 | 53 | 4 | 3.5 | 7.0 | 0.00 | 0.00 | 0.00 | ||
| 20260508223743 | 53 | 16 | 1.7 | 5.2 | 0.00 | 0.00 | 0.00 | ||
| 20260508223342 | 53 | 346 | 0.9 | 3.5 | 0.00 | 0.00 | 0.00 | ||
| 20260508222941 | 53 | 7 | 2.6 | 5.2 | 0.00 | 0.00 | 0.00 | ||
| 20260508222538 | 53 | 14 | 2.6 | 5.2 | 0.00 | 0.00 | 0.00 | ||
| 20260508222136 | 53 | 5 | 2.6 | 4.3 | 0.00 | 0.00 | 0.00 | ||
| 20260508221735 | 53 | 2 | 1.7 | 4.3 | 0.00 | 0.00 | 0.00 | ||
| 20260508220931 | 54 | 1 | 2.6 | 6.1 | 0.00 | 0.00 | 0.00 | ||
| 20260508220523 | 54 | 0 | 0.9 | 3.5 | 0.00 | 0.00 | 0.00 | ||
| 20260508220121 | 54 | 0 | 0.0 | 1.7 | 0.00 | 0.00 | 0.00 | ||
| 20260508215720 | 54 | 0 | 0.9 | 1.7 | 0.00 | 0.00 | 0.00 |